Theta_e
347 348 347 347 347 346 345 345 345 345 344 340 336 334 330 327 327 328 328 336 341 342 338 340 340 342 340 345 341 335 328 331 326 325 337 338 331 333 331 332 333 338 339
347 348 347 346 346 346 346 346 346 343 341 336 333 329 329 331 334 340 342 342 343 339 337 335 340 338 332 330 328 324 321 319 318 319 325 328 328 334 334 331 333 336 332
347 347 346 346 346 345 345 345 345 344 341 335 330 330 335 339 340 341 338 337 338 334 333 331 338 329 325 323 320 321 329 336 332 335 334 323 322 325 333 337 330 336 322
346 346 345 345 345 345 345 345 345 344 344 339 330 333 335 339 340 341 341 339 339 340 336 330 329 323 321 321 324 335 330 331 339 341 335 334 333 325 328 332 340 341 331
344 344 344 343 343 343 344 345 345 344 344 340 330 328 333 339 340 339 337 334 334 339 338 330 322 324 328 328 325 328 330 327 333 330 326 323 323 327 333 327 326 329 339
345 344 344 343 341 342 341 344 344 344 344 336 331 328 332 338 336 330 329 329 331 339 339 331 324 333 331 337 340 342 337 330 325 326 327 325 323 325 325 335 336 332 335
344 345 346 346 343 341 343 344 344 345 344 333 332 328 335 335 332 330 329 330 331 335 341 330 336 337 340 341 342 340 339 337 335 332 332 333 327 331 326 328 329 329 335
344 345 347 346 343 343 344 343 342 344 337 329 327 332 334 334 332 330 329 334 334 335 342 330 336 337 337 341 342 343 340 341 340 338 332 333 334 329 326 324 327 328 336
337 342 348 348 345 343 342 342 339 342 330 330 331 331 331 332 331 329 329 339 336 335 336 332 332 335 339 341 343 341 341 341 340 341 337 330 332 334 329 325 324 322 320
338 345 349 347 346 345 341 336 333 334 330 330 330 329 330 331 330 328 339 337 334 336 336 334 333 334 338 342 342 342 342 340 341 342 340 336 328 327 326 330 328 328 325
340 344 347 347 347 348 340 336 333 331 331 330 330 328 330 329 328 329 338 338 334 334 335 336 333 333 335 342 343 344 342 341 341 342 343 343 334 326 325 326 332 335 334
341 344 347 343 342 345 341 337 335 334 330 329 329 328 328 327 327 331 333 334 335 334 333 336 335 330 331 340 343 344 341 340 342 345 345 344 337 327 325 324 325 328 331
340 340 340 340 338 341 340 339 338 336 335 331 328 328 327 327 328 332 333 335 335 334 334 334 334 328 331 338 342 343 342 342 342 345 344 344 337 332 328 326 324 324 325
339 338 339 339 338 338 337 338 342 340 337 335 333 332 331 331 332 334 334 334 334 335 335 333 337 327 328 330 340 342 341 343 343 343 344 342 340 338 337 333 326 323 323
335 334 335 337 336 336 336 336 336 338 336 335 335 335 335 335 335 334 334 335 336 335 335 337 334 328 327 326 335 340 339 342 342 343 344 343 342 344 343 339 337 332 327
339 339 337 336 336 335 333 332 333 334 333 333 333 333 333 333 333 334 336 340 340 340 338 335 337 332 327 330 331 337 338 342 342 345 345 342 342 344 343 343 339 339 337
348 347 346 341 336 334 334 334 333 332 332 332 331 331 332 333 333 335 340 342 342 342 340 336 334 335 329 331 335 333 339 341 341 344 344 344 344 343 342 344 339 339 340
349 350 348 345 341 335 333 333 333 332 332 332 332 332 332 332 333 335 338 343 337 339 341 339 335 334 335 332 333 335 340 342 341 341 343 344 342 342 343 344 344 343 341
350 350 349 347 347 341 336 335 332 331 331 332 335 337 337 339 339 339 340 340 342 342 342 342 339 338 336 336 331 331 339 342 341 342 342 342 343 343 343 344 345 345 344
350 350 350 349 349 348 345 343 340 336 336 338 342 345 341 342 341 342 343 345 344 342 341 342 342 340 342 340 336 339 336 339 340 341 343 343 342 343 342 342 343 344 344
351 350 350 350 350 349 349 348 346 347 346 346 345 344 344 346 348 347 347 346 346 346 344 341 343 341 341 344 342 339 335 340 340 340 341 341 342 341 342 342 342 342 342
347 347 347 347 349 350 350 349 349 348 348 347 348 348 347 345 345 345 347 346 345 345 346 345 343 343 341 342 345 345 343 336 336 342 339 337 339 337 339 341 342 342 342
347 348 348 347 348 349 350 350 349 349 345 345 348 348 348 348 347 345 345 346 346 345 345 344 345 345 344 341 341 345 342 339 337 336 335 338 336 336 337 335 336 337 339
347 350 348 349 347 350 350 350 346 347 345 335 341 346 347 347 348 348 347 344 345 345 344 344 344 346 346 344 341 342 343 342 342 341 340 340 339 338 339 340 341 342 340
350 349 348 344 349 351 352 352 351 350 347 341 343 346 348 347 347 345 347 347 346 347 347 345 344 344 346 346 343 342 342 343 342 342 343 342 340 338 340 338 341 342 342
338 338 338 336 337 343 346 343 349 352 353 351 351 347 347 346 347 349 349 347 347 347 347 346 345 345 345 345 346 343 343 344 343 344 343 342 341 338 339 337 338 339 343
Wind_Speed
19 18 20 21 21 21 21 25 26 27 28 29 30 27 26 26 26 25 20 15 14 14 15 14 13 12 12 13 12 11 10 9 9 11 13 14 14 12 11 10 12 11 11
22 20 21 20 21 21 21 24 26 27 28 29 28 27 26 24 22 20 17 15 15 14 13 12 13 12 11 12 12 12 13 12 11 12 11 12 12 11 11 11 10 10 8
21 19 20 20 20 20 21 22 25 26 28 28 27 27 23 21 18 17 16 17 15 14 13 13 12 12 12 14 15 16 16 15 14 13 11 11 12 12 12 11 10 9 9
22 20 20 20 21 20 20 21 23 24 26 27 27 26 22 20 19 18 17 16 14 12 12 12 13 12 14 16 17 17 15 13 12 12 11 11 12 11 10 10 10 9 8
22 20 19 20 20 21 19 20 23 24 24 27 28 24 20 20 20 19 16 15 13 12 12 11 12 15 16 19 19 17 15 13 13 11 8 8 8 10 11 10 9 8 8
22 20 19 19 20 20 19 20 24 25 24 27 27 22 19 18 17 16 14 13 12 11 12 10 14 16 18 18 15 12 13 12 12 11 9 8 6 7 7 9 8 8 7
23 21 20 18 18 19 19 21 24 25 26 28 27 24 20 18 16 14 13 11 11 11 11 11 15 16 16 14 11 11 12 12 11 10 9 7 6 5 5 6 6 7 6
24 22 20 18 18 19 20 22 22 24 28 27 27 24 19 16 13 11 8 9 11 11 12 12 14 14 12 11 10 9 10 10 8 8 8 6 5 4 4 4 5 5 5
21 22 20 19 19 20 21 22 22 24 28 27 25 21 18 15 11 8 5 9 9 8 9 12 13 13 13 10 8 9 8 8 8 6 5 4 3 3 2 3 3 4 4
19 19 20 19 19 19 21 22 21 23 27 25 22 18 16 14 11 8 7 8 8 8 9 10 11 14 14 12 9 7 5 8 7 4 3 3 2 1 2 4 4 4 3
20 18 19 21 20 19 20 22 20 20 23 24 22 19 17 14 11 8 7 7 6 6 7 9 11 14 15 13 10 8 6 8 6 3 1 2 2 3 4 4 5 5 5
24 21 20 20 22 21 20 22 21 20 22 23 23 21 18 15 12 10 8 7 8 6 5 8 10 13 17 16 13 10 6 6 4 2 3 5 3 3 5 6 7 7 7
24 22 21 19 20 20 21 21 21 20 19 20 21 20 19 17 15 14 12 11 10 9 8 8 9 14 16 18 16 13 9 7 5 6 8 7 4 3 4 6 6 8 8
25 23 22 21 19 19 19 20 19 20 20 19 19 18 18 17 17 15 13 13 12 10 10 9 10 11 16 20 18 16 13 11 9 9 8 6 3 2 4 5 5 7 8
23 21 22 22 20 20 20 20 20 19 19 19 19 19 18 18 17 16 15 14 12 13 10 11 11 12 16 18 20 19 16 15 13 11 10 8 6 4 5 7 7 7 7
20 18 17 21 21 21 19 19 18 18 18 18 18 18 19 19 18 18 15 14 13 13 11 11 13 14 17 18 20 21 19 16 14 9 10 11 10 9 9 9 8 8 8
21 18 17 17 21 22 20 19 19 18 18 18 17 18 19 20 19 17 16 20 15 14 14 13 14 17 19 20 22 23 22 19 17 12 9 11 12 10 9 8 10 9 9
23 21 18 16 18 20 20 20 20 20 20 18 17 17 19 20 20 20 19 19 15 14 16 15 15 18 20 21 23 24 23 22 19 18 15 12 15 13 12 12 11 11 11
19 22 19 17 13 13 17 17 19 20 21 20 19 19 21 22 22 21 20 20 19 18 19 19 19 20 19 20 23 25 26 25 22 21 20 19 17 19 17 14 15 14 12
20 21 22 21 15 9 16 17 16 18 19 21 22 21 21 21 22 22 22 21 22 22 22 23 23 21 21 20 23 26 27 27 28 27 26 24 23 22 20 19 19 18 17
23 23 24 22 21 19 18 13 20 19 20 23 21 24 24 25 26 26 26 24 24 25 23 24 24 24 25 24 24 25 29 28 29 30 30 30 28 28 27 24 22 21 20
18 16 16 19 22 23 26 23 22 23 22 30 26 25 27 30 30 31 28 27 26 26 27 25 26 27 27 27 27 26 26 28 32 31 32 31 32 31 31 29 28 27 25
17 12 10 13 15 19 24 28 26 24 26 31 30 27 31 30 34 33 34 31 31 29 30 28 28 29 29 29 29 26 12 15 19 26 27 27 28 27 30 31 30 32 31
17 13 10 10 12 17 20 23 23 28 34 25 29 27 30 30 32 35 35 36 34 33 33 32 30 31 31 31 30 32 32 29 11 9 9 17 20 26 28 26 25 26 27
13 9 9 8 10 15 20 21 24 25 24 20 24 29 30 31 30 31 33 38 42 41 38 35 35 33 33 33 33 33 34 35 35 36 32 32 27 20 15 24 22 19 26
11 9 9 9 9 9 11 13 21 27 29 30 29 29 28 27 29 31 31 33 35 40 44 42 40 39 37 37 36 36 38 37 37 38 38 38 34 28 25 26 29 25 20
Wind_Direction
154 149 152 146 141 139 137 136 134 138 137 136 135 131 129 126 127 128 126 124 122 117 118 116 120 118 114 120 110 109 107 111 106 111 108 106 107 110 120 114 115 110 113
145 145 151 148 141 140 137 142 138 138 139 137 134 133 130 127 126 127 123 120 125 123 124 122 124 124 121 123 117 113 110 107 109 113 112 115 119 117 114 117 119 122 124
143 141 149 150 147 145 140 142 142 141 142 142 140 134 131 127 124 123 125 124 121 118 122 120 124 126 123 122 117 113 108 105 104 115 114 111 120 121 120 117 113 110 104
143 145 148 147 151 149 147 148 150 148 147 149 144 138 131 126 124 124 123 120 123 122 120 123 128 124 124 122 120 116 108 104 113 118 112 110 113 118 128 124 121 119 112
148 149 149 147 149 150 149 150 153 151 151 153 151 145 136 131 125 123 125 121 120 123 119 123 127 128 126 123 117 112 106 107 114 111 107 100 114 122 126 127 133 133 131
150 150 149 147 149 150 152 156 155 158 156 157 160 155 146 139 134 130 126 126 124 126 132 138 132 131 131 128 123 114 107 107 107 104 97 98 109 118 126 131 134 135 135
151 149 151 151 154 156 157 158 159 160 161 161 162 161 155 150 146 141 135 132 133 135 141 142 137 138 140 136 130 124 117 110 105 107 106 106 107 113 127 135 141 145 147
154 154 153 155 157 158 156 156 161 164 162 163 163 163 160 157 155 147 138 135 139 145 151 154 151 150 148 141 138 126 129 121 113 107 106 109 119 119 133 143 154 156 156
159 159 157 158 157 157 159 160 160 165 165 165 167 169 169 168 162 161 154 140 139 152 164 166 169 166 164 160 154 142 139 125 119 106 97 103 124 156 168 170 169 175 181
161 157 159 163 161 161 162 165 165 168 174 174 177 179 181 179 181 178 168 163 157 156 176 180 183 182 183 177 169 162 158 156 141 123 87 53 34 254 204 198 190 186 194
169 162 164 170 167 168 169 172 173 177 184 190 194 194 195 200 196 192 187 182 175 183 178 192 204 201 198 191 188 189 173 173 165 146 27 339 339 284 243 227 213 218 220
177 174 173 177 175 173 174 178 182 184 188 193 196 200 205 207 211 206 206 216 217 212 198 193 206 211 207 199 195 204 189 170 178 238 303 297 296 280 260 237 236 230 232
184 185 185 184 183 183 182 183 187 192 194 197 203 208 214 218 220 215 220 228 225 235 227 212 211 221 213 206 203 209 211 216 255 270 277 257 252 267 263 251 245 248 242
193 194 192 192 193 194 194 195 194 198 202 205 208 212 216 220 225 230 236 241 244 234 237 228 226 222 216 211 210 214 219 233 249 273 245 222 234 256 273 272 256 257 256
199 200 200 200 202 205 204 206 210 209 211 212 214 218 221 226 231 242 249 251 251 247 233 235 230 224 212 213 215 218 224 232 251 263 227 215 232 258 279 272 272 267 267
203 210 211 212 213 214 216 218 220 223 223 223 223 226 230 234 237 242 248 268 255 254 245 236 233 231 223 222 221 222 224 230 246 240 235 228 239 261 274 274 266 271 277
209 217 221 228 226 225 226 228 229 232 233 233 232 233 237 240 241 246 242 242 256 261 260 246 240 234 229 229 226 224 225 233 238 235 233 236 245 263 275 286 267 266 273
220 220 224 230 237 236 238 239 240 240 242 243 243 243 244 246 246 247 249 252 239 253 252 255 250 246 239 239 235 232 235 238 242 246 239 249 250 262 265 274 283 285 276
227 226 225 230 237 243 241 246 248 249 248 249 251 253 250 251 250 250 253 256 258 256 258 259 257 252 246 243 247 244 243 247 247 250 250 248 248 248 255 262 271 275 280
231 235 236 236 226 241 248 241 244 250 248 250 253 257 251 251 250 253 255 258 260 260 259 258 257 253 254 256 255 254 251 250 251 249 251 253 251 252 255 257 263 269 275
233 238 245 245 242 244 251 247 238 253 253 251 256 257 251 253 252 254 257 256 259 261 259 262 262 258 255 254 262 260 255 252 251 251 253 253 254 253 254 258 261 264 270
242 244 259 255 253 252 252 254 252 257 263 263 265 268 261 255 256 257 256 258 256 260 258 256 260 260 259 254 256 264 276 265 256 253 253 257 253 257 253 255 258 263 269
232 259 271 251 251 254 255 255 261 271 267 271 265 272 274 269 264 262 258 258 257 257 258 254 254 256 261 259 254 252 259 260 273 270 263 255 258 256 254 261 262 264 264
231 257 261 255 258 268 267 261 264 274 276 271 271 279 284 273 273 268 263 259 260 259 256 256 257 256 255 259 256 250 250 251 265 283 273 253 256 256 256 255 264 269 267
230 231 229 250 252 263 273 277 262 274 277 289 286 284 279 278 275 271 269 263 258 260 260 258 258 256 254 256 257 254 250 251 253 254 265 266 266 264 269 256 254 275 267
194 197 208 205 207 235 249 256 255 257 265 270 275 276 275 273 272 273 275 268 263 260 259 260 260 258 256 254 254 255 251 251 253 254 256 264 271 272 270 267 265 272 282